Location: Aufkirchen
(47.9603°N, 11.3653°E)
Time: 07:24:37
(UTC+01:00)

Transit 4A - Pass Details

Date: 30 November 2020
Orbit: 864 x 980 km, 66.8° (Epoch: 25 January)

Event Time Altitude Azimuth Distance (km) Brightness Sun altitude
Rises 14:26:20 0° 324° (NW) 3,691 10.8 13.3°
Reaches altitude 10° 14:29:26 10° 337° (NNW) 2,736 10.1 13.0°
Maximum altitude 14:34:38 25° 32° (NNE) 1,843 9.0 12.5°
Drops below altitude 10° 14:39:45 10° 86° (E) 2,688 10.0 12.0°
Sets 14:42:46 0° 100° (E) 3,613 10.7 11.7°
